TimeEST,TemperatureF,Dew PointF,Humidity,Sea Level PressureIn,VisibilityMPH,Wind Direction,Wind SpeedMPH,Gust SpeedMPH,PrecipitationIn,Events,Conditions,WindDirDegrees,DateUTC
12:54 AM,32.0,21.0,64,29.77,10.0,NW,8.1,18.4,N/A,,Overcast,320,2013-03-05 05:54:00
2:54 AM,32.0,19.9,61,29.81,10.0,NW,8.1,-,N/A,,Overcast,310,2013-03-05 07:54:00
3:54 AM,32.0,19.9,61,29.83,10.0,NNW,8.1,16.1,N/A,,Overcast,330,2013-03-05 08:54:00
4:54 AM,32.0,21.0,64,29.86,10.0,NNW,10.4,16.1,N/A,,Overcast,330,2013-03-05 09:54:00
5:54 AM,32.0,21.0,64,29.88,10.0,NNW,8.1,-,N/A,,Overcast,330,2013-03-05 10:54:00
6:54 AM,32.0,21.0,64,29.91,10.0,NW,6.9,-,N/A,,Mostly Cloudy,320,2013-03-05 11:54:00
7:54 AM,33.8,21.2,60,29.93,10.0,NW,4.6,-,N/A,,Overcast,320,2013-03-05 12:54:00
8:54 AM,37.0,23.0,57,29.95,10.0,Variable,6.9,-,N/A,,Overcast,0,2013-03-05 13:54:00
9:01 AM,37.4,23.0,56,29.94,10.0,NNW,9.2,-,N/A,,Overcast,340,2013-03-05 14:01:00
9:54 AM,39.9,24.1,53,29.96,10.0,North,8.1,20.7,N/A,,Overcast,350,2013-03-05 14:54:00
10:54 AM,41.0,25.0,53,29.96,10.0,North,9.2,-,N/A,,Overcast,350,2013-03-05 15:54:00
11:54 AM,45.0,26.1,48,29.96,10.0,NW,8.1,17.3,N/A,,Mostly Cloudy,320,2013-03-05 16:54:00
12:54 PM,45.0,27.0,49,29.96,10.0,NNE,8.1,-,N/A,,Overcast,30,2013-03-05 17:54:00
1:54 PM,45.0,28.0,52,29.98,10.0,ENE,8.1,-,N/A,,Overcast,70,2013-03-05 18:54:00
2:54 PM,43.0,30.0,60,30.00,10.0,East,9.2,-,N/A,,Overcast,90,2013-03-05 19:54:00
3:54 PM,45.0,30.9,58,30.01,10.0,East,4.6,-,N/A,,Partly Cloudy,80,2013-03-05 20:54:00
4:54 PM,44.1,32.0,63,30.04,10.0,ENE,4.6,-,N/A,,Scattered Clouds,70,2013-03-05 21:54:00
5:54 PM,39.9,30.9,70,30.05,10.0,Calm,Calm,-,N/A,,Partly Cloudy,0,2013-03-05 22:54:00
6:54 PM,37.9,30.9,76,30.06,10.0,Calm,Calm,-,N/A,,Clear,0,2013-03-05 23:54:00
7:54 PM,34.0,28.9,82,30.07,10.0,Calm,Calm,-,N/A,,Scattered Clouds,0,2013-03-06 00:54:00
8:54 PM,37.0,30.9,79,30.07,10.0,Calm,Calm,-,N/A,,Overcast,0,2013-03-06 01:54:00
9:54 PM,34.0,28.9,82,30.06,10.0,NNE,4.6,-,N/A,,Mostly Cloudy,20,2013-03-06 02:54:00
10:28 PM,37.4,30.2,75,30.07,10.0,North,8.1,-,N/A,,Overcast,360,2013-03-06 03:28:00
10:54 PM,37.9,32.0,79,30.08,10.0,NNE,5.8,-,N/A,,Overcast,20,2013-03-06 03:54:00
11:05 PM,37.4,33.8,87,30.08,10.0,NNE,6.9,-,N/A,,Overcast,20,2013-03-06 04:05:00
11:29 PM,37.4,33.8,87,30.09,10.0,North,4.6,-,N/A,,Overcast,360,2013-03-06 04:29:00
11:54 PM,37.0,32.0,82,30.09,10.0,North,5.8,-,N/A,,Overcast,10,2013-03-06 04:54:00